Location: Unspecified
(32.0932°N, 0.0000°E)
Time: 13:38:13
(UTC+00:00)

NOAA 17 DEB - Visible Passes

Search period start: 04 April 2026 00:00
Search period end: 14 April 2026 00:00
Orbit: 750 x 759 km, 98.9° (Epoch: 28 March)

Date Brightness Start Highest point End Pass type
(mag) Time Alt. Az. Time Alt. Az. Time Alt. Az.
4 Apr ? 05:15:54 10° NNE 05:20:39 42° E 05:25:24 10° S visible
5 Apr ? 04:37:38 10° ENE 04:40:38 16° E 04:43:37 10° SE visible
7 Apr ? 04:55:44 10° NE 04:59:50 25° E 05:03:57 10° SSE visible
10 Apr ? 04:36:10 10° ENE 04:38:56 15° E 04:41:43 10° SE visible
12 Apr ? 04:54:08 10° NE 04:58:07 23° E 05:02:06 10° SSE visible
